When you browse on this site, cookies collect data to enhance your experience and personalize the content and advertising you see.
Visit our Privacy Policy to learn more. By continuing to use the site, you agree to this use of cookies and data.
  • In Latvia
  • List of Countries
  • For 7 days
  • Water Temperature
  • Satellite Maps
  • Weather Map
  • Weather Widgets
  • user-avatar
    Login

    Hourly Weather Oran

    Today, 24 July, Wednesday

    Time Temperature Precipitation Wind Pressure Humidity
    00:00 +27°C° 0 mm 2 mps 750 mmHg 74%
    01:00 +27°C° 0 mm 2 mps 749 mmHg 76%
    02:00 +26°C° 0 mm 2 mps 749 mmHg 78%
    03:00 +26°C° 0 mm 2 mps 749 mmHg 80%
    04:00 +26°C° 0 mm 1 mps 749 mmHg 79%
    05:00 +26°C° 0 mm 1 mps 749 mmHg 78%
    06:00 +26°C° 0 mm 1 mps 749 mmHg 78%
    07:00 +28°C° 0 mm 1 mps 750 mmHg 69%
    08:00 +29°C° 0 mm 2 mps 750 mmHg 61%
    09:00 +31°C° 0 mm 2 mps 750 mmHg 53%
    10:00 +34°C° 0 mm 2 mps 750 mmHg 48%
    11:00 +35°C° 0 mm 2 mps 750 mmHg 43%
    12:00 +37°C° 0 mm 2 mps 750 mmHg 39%
    13:00 +37°C° 0 mm 3 mps 750 mmHg 39%
    14:00 +37°C° 0 mm 3 mps 749 mmHg 39%
    15:00 +37°C° 0 mm 3 mps 749 mmHg 39%
    16:00 +37°C° 0 mm 3 mps 749 mmHg 39%
    17:00 +36°C° 0 mm 3 mps 749 mmHg 39%
    18:00 +35°C° 0 mm 2 mps 748 mmHg 40%
    19:00 +34°C° 0 mm 2 mps 749 mmHg 44%
    20:00 +32°C° 0 mm 2 mps 749 mmHg 48%
    21:00 +30°C° 0 mm 2 mps 749 mmHg 53%
    22:00 +29°C° 0 mm 2 mps 749 mmHg 61%
    23:00 +28°C° 0 mm 2 mps 749 mmHg 68%

    Tomorrow, 25 July, Thursday

    Time Temperature Precipitation Wind Pressure Humidity
    00:00 +27°C° 0 mm 2 mps 749 mmHg 76%
    01:00 +26°C° 0 mm 3 mps 749 mmHg 78%
    02:00 +26°C° 0 mm 3 mps 749 mmHg 81%
    03:00 +26°C° 0 mm 4 mps 749 mmHg 83%
    04:00 +26°C° 0 mm 4 mps 749 mmHg 83%
    05:00 +26°C° 0 mm 3 mps 750 mmHg 83%
    06:00 +26°C° 0 mm 3 mps 750 mmHg 83%
    07:00 +27°C° 0 mm 3 mps 750 mmHg 74%
    08:00 +29°C° 0 mm 3 mps 750 mmHg 64%
    09:00 +30°C° 0 mm 3 mps 751 mmHg 55%
    10:00 +31°C° 0 mm 3 mps 751 mmHg 51%
    11:00 +34°C° 0 mm 3 mps 750 mmHg 47%
    12:00 +35°C° 0 mm 3 mps 750 mmHg 44%
    13:00 +35°C° 0 mm 3 mps 750 mmHg 41%
    14:00 +36°C° 0 mm 3 mps 750 mmHg 39%
    15:00 +37°C° 0 mm 2 mps 749 mmHg 36%
    16:00 +36°C° 0 mm 2 mps 749 mmHg 38%
    17:00 +36°C° 0 mm 2 mps 749 mmHg 40%
    18:00 +35°C° 0 mm 2 mps 749 mmHg 42%
    19:00 +34°C° 0 mm 2 mps 749 mmHg 43%
    20:00 +34°C° 0 mm 2 mps 750 mmHg 44%
    21:00 +32°C° 0 mm 2 mps 750 mmHg 45%
    22:00 +31°C° 0 mm 2 mps 750 mmHg 50%
    23:00 +30°C° 0 mm 2 mps 749 mmHg 54%

    Day after tomorrow, 26 July, Friday

    Time Temperature Precipitation Wind Pressure Humidity
    00:00 +29°C° 0 mm 2 mps 749 mmHg 59%
    01:00 +28°C° 0 mm 2 mps 749 mmHg 62%
    02:00 +28°C° 0 mm 2 mps 749 mmHg 65%
    03:00 +27°C° 0 mm 2 mps 748 mmHg 69%
    04:00 +27°C° 0 mm 2 mps 748 mmHg 70%
    05:00 +27°C° 0 mm 3 mps 748 mmHg 72%
    06:00 +26°C° 0 mm 4 mps 748 mmHg 73%
    07:00 +28°C° 0 mm 4 mps 749 mmHg 65%
    08:00 +30°C° 0 mm 4 mps 749 mmHg 57%
    09:00 +32°C° 0 mm 4 mps 749 mmHg 49%
    10:00 +33°C° 0 mm 5 mps 749 mmHg 46%
    11:00 +34°C° 0 mm 5 mps 749 mmHg 43%
    12:00 +35°C° 0 mm 5 mps 748 mmHg 39%
    13:00 +36°C° 0 mm 5 mps 748 mmHg 36%
    14:00 +36°C° 0 mm 5 mps 748 mmHg 32%
    15:00 +36°C° 0 mm 5 mps 747 mmHg 28%
    16:00 +36°C° 0 mm 5 mps 747 mmHg 28%
    17:00 +35°C° 0 mm 6 mps 747 mmHg 27%
    18:00 +35°C° 0 mm 6 mps 747 mmHg 27%
    19:00 +34°C° 0 mm 6 mps 747 mmHg 28%
    20:00 +32°C° 0 mm 7 mps 747 mmHg 30%
    21:00 +30°C° 0 mm 7 mps 747 mmHg 32%
    22:00 +31°C° 0 mm 8 mps 747 mmHg 33%
    23:00 +29°C° 0 mm 8 mps 747 mmHg 35%

    27 July, Saturday

    Time Temperature Precipitation Wind Pressure Humidity
    00:00 +28°C° 0 mm 8 mps 747 mmHg 36%
    01:00 +27°C° 0 mm 8 mps 747 mmHg 38%
    02:00 +27°C° 0 mm 8 mps 747 mmHg 40%
    03:00 +26°C° 0 mm 9 mps 747 mmHg 41%
    04:00 +26°C° 0 mm 8 mps 747 mmHg 44%
    05:00 +26°C° 0 mm 8 mps 747 mmHg 46%
    06:00 +26°C° 0 mm 8 mps 747 mmHg 48%
    07:00 +27°C° 0 mm 9 mps 748 mmHg 45%
    08:00 +28°C° 0 mm 10 mps 748 mmHg 42%
    09:00 +31°C° 0 mm 10 mps 748 mmHg 39%
    10:00 +31°C° 0 mm 10 mps 748 mmHg 36%
    11:00 +32°C° 0 mm 10 mps 748 mmHg 33%
    12:00 +32°C° 0 mm 10 mps 748 mmHg 30%
    13:00 +32°C° 0 mm 10 mps 748 mmHg 26%
    14:00 +32°C° 0 mm 10 mps 747 mmHg 23%
    15:00 +32°C° 0 mm 10 mps 747 mmHg 20%
    16:00 +32°C° 0 mm 9 mps 747 mmHg 21%
    17:00 +31°C° 0 mm 8 mps 747 mmHg 23%
    18:00 +29°C° 0 mm 7 mps 747 mmHg 24%
    19:00 +28°C° 0 mm 6 mps 747 mmHg 28%
    20:00 +27°C° 0 mm 6 mps 747 mmHg 31%
    21:00 +26°C° 0 mm 5 mps 748 mmHg 35%
    22:00 +26°C° 0 mm 6 mps 747 mmHg 38%
    23:00 +26°C° 0 mm 6 mps 747 mmHg 41%

    28 July, Sunday

    Time Temperature Precipitation Wind Pressure Humidity
    00:00 +26°C° 0 mm 6 mps 747 mmHg 44%
    01:00 +24°C° 0 mm 6 mps 747 mmHg 47%
    02:00 +24°C° 0 mm 7 mps 747 mmHg 51%
    03:00 +24°C° 0 mm 7 mps 746 mmHg 54%
    04:00 +24°C° 0 mm 6 mps 747 mmHg 53%
    05:00 +24°C° 0 mm 6 mps 747 mmHg 51%
    06:00 +26°C° 0 mm 5 mps 747 mmHg 50%
    07:00 +27°C° 0 mm 5 mps 747 mmHg 46%
    08:00 +29°C° 0 mm 6 mps 748 mmHg 43%
    09:00 +32°C° 0 mm 6 mps 748 mmHg 39%
    10:00 +32°C° 0 mm 7 mps 748 mmHg 40%
    11:00 +33°C° 0 mm 7 mps 748 mmHg 41%
    12:00 +33°C° 0 mm 7 mps 748 mmHg 42%
    13:00 +33°C° 0 mm 7 mps 747 mmHg 41%
    14:00 +34°C° 0 mm 6 mps 747 mmHg 41%
    15:00 +34°C° 0 mm 6 mps 747 mmHg 41%
    16:00 +33°C° 0 mm 5 mps 747 mmHg 45%
    17:00 +30°C° 0 mm 4 mps 747 mmHg 48%
    18:00 +29°C° 0 mm 3 mps 747 mmHg 52%
    19:00 +28°C° 0 mm 3 mps 747 mmHg 57%
    20:00 +27°C° 0 mm 2 mps 748 mmHg 61%
    21:00 +26°C° 0 mm 1 mps 748 mmHg 66%
    22:00 +26°C° 0 mm 2 mps 748 mmHg 69%
    23:00 +25°C° 0 mm 2 mps 748 mmHg 71%

    29 July, Monday

    Time Temperature Precipitation Wind Pressure Humidity
    00:00 +25°C° 0 mm 2 mps 748 mmHg 74%
    01:00 +24°C° 0 mm 2 mps 748 mmHg 77%
    02:00 +24°C° 0 mm 2 mps 748 mmHg 80%
    03:00 +24°C° 0 mm 2 mps 748 mmHg 83%
    04:00 +24°C° 0 mm 2 mps 748 mmHg 82%
    05:00 +24°C° 0 mm 1 mps 748 mmHg 81%
    06:00 +24°C° 0 mm 1 mps 748 mmHg 81%
    07:00 +25°C° 0 mm 1 mps 749 mmHg 72%
    08:00 +27°C° 0 mm 1 mps 749 mmHg 63%
    09:00 +29°C° 0 mm 1 mps 749 mmHg 54%
    10:00 +30°C° 0 mm 2 mps 749 mmHg 50%
    11:00 +31°C° 0 mm 2 mps 748 mmHg 47%
    12:00 +33°C° 0 mm 3 mps 748 mmHg 43%
    13:00 +33°C° 0 mm 3 mps 748 mmHg 44%
    14:00 +33°C° 0 mm 4 mps 748 mmHg 45%
    15:00 +33°C° 0 mm 4 mps 747 mmHg 45%
    16:00 +33°C° 0 mm 4 mps 747 mmHg 47%
    17:00 +32°C° 0 mm 4 mps 747 mmHg 49%
    18:00 +30°C° 0 mm 4 mps 748 mmHg 51%
    19:00 +29°C° 0 mm 3 mps 748 mmHg 57%
    20:00 +28°C° 0 mm 3 mps 749 mmHg 62%
    21:00 +27°C° 0 mm 2 mps 749 mmHg 67%
    22:00 +27°C° 0 mm 2 mps 749 mmHg 70%
    23:00 +26°C° 0 mm 2 mps 749 mmHg 72%
    Show more